Time,TemperatureF,DewpointF,PressureIn,WindDirection,WindDirectionDegrees,WindSpeedMPH,WindSpeedGustMPH,Humidity,HourlyPrecipIn,Conditions,Clouds,dailyrainin,SolarRadiationWatts/m^2,SoftwareType,DateUTC
2013-03-16 00:01:00,41.6,39.4,29.78,North,355,0.0,-999.0,92,0.00,,,0.00,0,Wunderground v.1.15,2013-03-16 04:01:00,
2013-03-16 00:04:00,41.6,38.3,29.78,North,355,0.0,-999.0,88,0.00,,,0.00,0,Wunderground v.1.15,2013-03-16 04:04:00,
2013-03-16 00:05:00,41.5,38.2,29.78,North,355,0.0,-999.0,88,0.00,,,0.00,0,Wunderground v.1.15,2013-03-16 04:05:00,
2013-03-16 00:07:00,41.5,38.2,29.78,North,355,0.0,-999.0,88,0.00,,,0.00,0,Wunderground v.1.15,2013-03-16 04:07:00,
2013-03-16 00:14:00,41.2,38.2,29.78,North,355,0.0,-999.0,89,0.00,,,0.00,0,Wunderground v.1.15,2013-03-16 04:14:00,
2013-03-16 00:20:00,41.1,38.1,29.78,NNE,13,0.0,-999.0,89,0.00,,,0.00,0,Wunderground v.1.15,2013-03-16 04:20:00,
2013-03-16 00:26:00,40.9,37.9,29.78,NNE,18,0.0,-999.0,89,0.00,,,0.00,0,Wunderground v.1.15,2013-03-16 04:26:00,
2013-03-16 00:33:00,40.8,37.8,29.77,NNE,18,0.0,-999.0,89,0.00,,,0.00,0,Wunderground v.1.15,2013-03-16 04:33:00,
2013-03-16 00:39:00,40.7,37.7,29.77,NNE,18,0.0,-999.0,89,0.00,,,0.00,0,Wunderground v.1.15,2013-03-16 04:39:00,
2013-03-16 00:46:00,40.6,37.6,29.77,NNE,19,0.0,-999.0,89,0.00,,,0.00,0,Wunderground v.1.15,2013-03-16 04:46:00,
2013-03-16 00:51:00,40.5,37.5,29.77,NNE,25,0.0,-999.0,89,0.00,,,0.00,0,Wunderground v.1.15,2013-03-16 04:51:00,
2013-03-16 00:58:00,40.4,37.7,29.77,NE,46,0.0,-999.0,90,0.00,,,0.01,0,Wunderground v.1.15,2013-03-16 04:58:00,
2013-03-16 01:04:00,40.3,37.6,29.77,NE,45,0.0,-999.0,90,0.00,,,0.01,0,Wunderground v.1.15,2013-03-16 05:04:00,
2013-03-16 01:09:00,40.2,37.5,29.77,NE,50,0.0,-999.0,90,0.00,,,0.01,0,Wunderground v.1.15,2013-03-16 05:09:00,
2013-03-16 01:15:00,40.1,37.4,29.76,NE,50,0.0,-999.0,90,0.00,,,0.01,0,Wunderground v.1.15,2013-03-16 05:15:00,
2013-03-16 01:21:00,40.0,37.6,29.76,NE,50,0.0,-999.0,91,0.00,,,0.01,0,Wunderground v.1.15,2013-03-16 05:21:00,
2013-03-16 01:27:00,39.9,37.5,29.76,NE,44,0.0,-999.0,91,0.00,,,0.02,0,Wunderground v.1.15,2013-03-16 05:27:00,
2013-03-16 01:34:00,39.8,37.4,29.76,NE,44,0.0,-999.0,91,0.00,,,0.02,0,Wunderground v.1.15,2013-03-16 05:34:00,
2013-03-16 01:40:00,39.6,37.2,29.76,ENE,60,0.0,-999.0,91,0.00,,,0.02,0,Wunderground v.1.15,2013-03-16 05:40:00,
2013-03-16 01:47:00,39.4,37.0,29.76,ENE,61,0.0,-999.0,91,0.00,,,0.02,0,Wunderground v.1.15,2013-03-16 05:47:00,
2013-03-16 01:53:00,39.2,36.8,29.76,NE,53,1.0,-999.0,91,0.00,,,0.02,0,Wunderground v.1.15,2013-03-16 05:53:00,
2013-03-16 01:58:00,39.1,36.7,29.75,NE,53,1.0,-999.0,91,0.00,,,0.02,0,Wunderground v.1.15,2013-03-16 05:58:00,
2013-03-16 02:04:00,38.9,36.5,29.75,NE,53,0.0,-999.0,91,0.00,,,0.02,0,Wunderground v.1.15,2013-03-16 06:04:00,
2013-03-16 02:11:00,38.9,36.8,29.75,NE,53,0.0,-999.0,92,0.00,,,0.02,0,Wunderground v.1.15,2013-03-16 06:11:00,
2013-03-16 02:16:00,38.8,36.7,29.75,NE,53,0.0,-999.0,92,0.00,,,0.03,0,Wunderground v.1.15,2013-03-16 06:16:00,
2013-03-16 02:23:00,38.7,36.6,29.75,NNE,25,0.0,-999.0,92,0.00,,,0.03,0,Wunderground v.1.15,2013-03-16 06:23:00,
2013-03-16 02:29:00,38.7,36.6,29.75,NNE,25,0.0,-999.0,92,0.00,,,0.03,0,Wunderground v.1.15,2013-03-16 06:29:00,
2013-03-16 02:36:00,38.6,36.5,29.75,NE,42,1.0,-999.0,92,0.00,,,0.03,0,Wunderground v.1.15,2013-03-16 06:36:00,
2013-03-16 02:41:00,38.6,36.5,29.75,NE,41,0.0,-999.0,92,0.00,,,0.03,0,Wunderground v.1.15,2013-03-16 06:41:00,
2013-03-16 02:48:00,38.4,36.3,29.74,NNE,33,0.0,-999.0,92,0.00,,,0.03,0,Wunderground v.1.15,2013-03-16 06:48:00,
2013-03-16 02:54:00,38.3,36.2,29.74,NE,52,0.0,-999.0,92,0.00,,,0.03,0,Wunderground v.1.15,2013-03-16 06:54:00,
2013-03-16 02:59:00,38.2,36.1,29.74,NE,44,1.0,-999.0,92,0.00,,,0.03,0,Wunderground v.1.15,2013-03-16 06:59:00,
2013-03-16 03:06:00,38.0,36.2,29.74,ENE,65,1.0,-999.0,93,0.00,,,0.03,0,Wunderground v.1.15,2013-03-16 07:06:00,
2013-03-16 03:12:00,37.9,36.1,29.73,ENE,62,0.0,-999.0,93,0.00,,,0.04,0,Wunderground v.1.15,2013-03-16 07:12:00,
2013-03-16 03:19:00,37.8,35.7,29.73,NE,40,0.0,-999.0,92,0.00,,,0.04,0,Wunderground v.1.15,2013-03-16 07:19:00,
2013-03-16 03:25:00,37.7,35.9,29.73,NE,40,0.0,-999.0,93,0.00,,,0.04,0,Wunderground v.1.15,2013-03-16 07:25:00,
2013-03-16 03:32:00,37.6,35.8,29.72,NE,42,0.0,-999.0,93,0.00,,,0.04,0,Wunderground v.1.15,2013-03-16 07:32:00,
2013-03-16 03:38:00,37.5,35.7,29.72,NE,53,0.0,-999.0,93,0.00,,,0.04,0,Wunderground v.1.15,2013-03-16 07:38:00,
2013-03-16 03:45:00,37.5,35.7,29.71,ENE,71,0.0,-999.0,93,0.00,,,0.04,0,Wunderground v.1.15,2013-03-16 07:45:00,
2013-03-16 03:51:00,37.4,35.6,29.71,ENE,59,0.0,-999.0,93,0.00,,,0.04,0,Wunderground v.1.15,2013-03-16 07:51:00,
2013-03-16 03:57:00,37.4,35.6,29.71,NE,55,0.0,-999.0,93,0.00,,,0.04,0,Wunderground v.1.15,2013-03-16 07:57:00,
2013-03-16 04:03:00,37.3,35.5,29.70,ENE,77,1.0,-999.0,93,0.00,,,0.04,0,Wunderground v.1.15,2013-03-16 08:03:00,
2013-03-16 04:08:00,37.3,35.5,29.69,ENE,77,0.0,-999.0,93,0.00,,,0.04,0,Wunderground v.1.15,2013-03-16 08:08:00,
2013-03-16 04:15:00,37.1,35.3,29.69,ENE,75,0.0,-999.0,93,0.00,,,0.04,0,Wunderground v.1.15,2013-03-16 08:15:00,
2013-03-16 04:20:00,37.1,35.3,29.69,ENE,67,1.0,-999.0,93,0.00,,,0.04,0,Wunderground v.1.15,2013-03-16 08:20:00,
2013-03-16 04:25:00,36.9,35.1,29.69,East,89,1.0,-999.0,93,0.00,,,0.04,0,Wunderground v.1.15,2013-03-16 08:25:00,
2013-03-16 04:32:00,36.8,35.0,29.69,East,87,0.0,-999.0,93,0.00,,,0.04,0,Wunderground v.1.15,2013-03-16 08:32:00,
2013-03-16 04:39:00,36.7,34.9,29.68,East,83,1.0,-999.0,93,0.00,,,0.04,0,Wunderground v.1.15,2013-03-16 08:39:00,
2013-03-16 04:46:00,36.6,34.8,29.68,NNE,33,1.0,-999.0,93,0.00,,,0.04,0,Wunderground v.1.15,2013-03-16 08:46:00,
2013-03-16 04:52:00,36.4,34.6,29.68,East,98,2.0,-999.0,93,0.00,,,0.04,0,Wunderground v.1.15,2013-03-16 08:52:00,
2013-03-16 04:59:00,36.3,34.5,29.67,East,99,2.0,-999.0,93,0.00,,,0.04,0,Wunderground v.1.15,2013-03-16 08:59:00,
2013-03-16 05:06:00,36.2,34.4,29.67,East,92,2.0,-999.0,93,0.00,,,0.04,0,Wunderground v.1.15,2013-03-16 09:06:00,
2013-03-16 05:11:00,36.1,34.3,29.68,ENE,67,1.0,-999.0,93,0.00,,,0.04,0,Wunderground v.1.15,2013-03-16 09:11:00,
2013-03-16 05:16:00,36.0,34.2,29.67,East,88,0.0,-999.0,93,0.00,,,0.04,0,Wunderground v.1.15,2013-03-16 09:16:00,
2013-03-16 05:22:00,36.0,34.2,29.68,ENE,78,1.0,-999.0,93,0.00,,,0.04,0,Wunderground v.1.15,2013-03-16 09:22:00,
2013-03-16 05:27:00,35.9,34.1,29.68,East,90,1.0,-999.0,93,0.00,,,0.04,0,Wunderground v.1.15,2013-03-16 09:27:00,
2013-03-16 05:32:00,35.9,34.1,29.67,East,88,0.0,-999.0,93,0.00,,,0.04,0,Wunderground v.1.15,2013-03-16 09:32:00,
2013-03-16 05:37:00,35.9,34.1,29.68,ENE,69,0.0,-999.0,93,0.00,,,0.04,0,Wunderground v.1.15,2013-03-16 09:37:00,
2013-03-16 05:43:00,35.9,34.1,29.67,ENE,76,0.0,-999.0,93,0.00,,,0.04,0,Wunderground v.1.15,2013-03-16 09:43:00,
2013-03-16 05:48:00,35.8,34.0,29.66,ENE,57,0.0,-999.0,93,0.00,,,0.04,0,Wunderground v.1.15,2013-03-16 09:48:00,
2013-03-16 05:53:00,35.7,33.9,29.66,NE,36,0.0,-999.0,93,0.00,,,0.04,0,Wunderground v.1.15,2013-03-16 09:53:00,
2013-03-16 05:58:00,35.7,33.9,29.66,NE,46,0.0,-999.0,93,0.00,,,0.04,0,Wunderground v.1.15,2013-03-16 09:58:00,
2013-03-16 06:03:00,35.6,33.8,29.67,ENE,77,0.0,-999.0,93,0.00,,,0.04,0,Wunderground v.1.15,2013-03-16 10:03:00,
2013-03-16 06:09:00,35.6,33.8,29.67,ESE,105,0.0,-999.0,93,0.00,,,0.04,0,Wunderground v.1.15,2013-03-16 10:09:00,
2013-03-16 06:15:00,35.5,33.7,29.67,ESE,105,0.0,-999.0,93,0.00,,,0.04,0,Wunderground v.1.15,2013-03-16 10:15:00,
2013-03-16 06:21:00,35.5,33.7,29.68,East,99,0.0,-999.0,93,0.00,,,0.04,0,Wunderground v.1.15,2013-03-16 10:21:00,
2013-03-16 06:27:00,35.5,33.7,29.67,East,99,0.0,-999.0,93,0.00,,,0.04,0,Wunderground v.1.15,2013-03-16 10:27:00,
2013-03-16 06:32:00,35.5,33.7,29.67,East,99,0.0,-999.0,93,0.00,,,0.04,0,Wunderground v.1.15,2013-03-16 10:32:00,
2013-03-16 06:38:00,35.5,33.7,29.67,East,99,0.0,-999.0,93,0.00,,,0.04,0,Wunderground v.1.15,2013-03-16 10:38:00,
2013-03-16 06:44:00,35.5,33.7,29.66,SSE,152,0.0,-999.0,93,0.00,,,0.04,0,Wunderground v.1.15,2013-03-16 10:44:00,
2013-03-16 06:50:00,35.5,33.7,29.67,SSE,152,0.0,-999.0,93,0.00,,,0.04,0,Wunderground v.1.15,2013-03-16 10:50:00,
2013-03-16 06:56:00,35.5,33.7,29.66,SE,146,0.0,-999.0,93,0.00,,,0.04,0,Wunderground v.1.15,2013-03-16 10:56:00,
2013-03-16 07:03:00,35.6,33.8,29.66,SE,146,0.0,-999.0,93,0.00,,,0.04,0,Wunderground v.1.15,2013-03-16 11:03:00,
2013-03-16 07:09:00,35.6,33.8,29.65,SE,127,0.0,-999.0,93,0.00,,,0.04,0,Wunderground v.1.15,2013-03-16 11:09:00,
2013-03-16 07:15:00,35.6,33.8,29.65,SE,127,0.0,-999.0,93,0.00,,,0.04,0,Wunderground v.1.15,2013-03-16 11:15:00,
2013-03-16 07:21:00,35.7,33.9,29.65,SE,127,0.0,-999.0,93,0.00,,,0.04,0,Wunderground v.1.15,2013-03-16 11:21:00,
2013-03-16 07:27:00,35.7,33.9,29.66,East,89,0.0,-999.0,93,0.00,,,0.04,0,Wunderground v.1.15,2013-03-16 11:27:00,
2013-03-16 07:33:00,35.7,33.9,29.64,ENE,73,0.0,-999.0,93,0.00,,,0.04,0,Wunderground v.1.15,2013-03-16 11:33:00,
2013-03-16 07:39:00,35.7,33.9,29.64,East,83,0.0,-999.0,93,0.00,,,0.04,0,Wunderground v.1.15,2013-03-16 11:39:00,
2013-03-16 07:45:00,35.7,33.9,29.64,ENE,77,0.0,-999.0,93,0.00,,,0.04,0,Wunderground v.1.15,2013-03-16 11:45:00,
2013-03-16 07:51:00,35.7,33.9,29.64,ENE,77,0.0,-999.0,93,0.00,,,0.04,11,Wunderground v.1.15,2013-03-16 11:51:00,
2013-03-16 07:57:00,35.8,34.0,29.63,East,84,0.0,-999.0,93,0.00,,,0.04,9,Wunderground v.1.15,2013-03-16 11:57:00,
2013-03-16 08:05:00,35.9,34.1,29.64,NE,36,0.0,-999.0,93,0.00,,,0.04,5,Wunderground v.1.15,2013-03-16 12:05:00,
2013-03-16 08:10:00,35.9,34.1,29.65,NNE,20,1.0,-999.0,93,0.00,,,0.04,0,Wunderground v.1.15,2013-03-16 12:10:00,
2013-03-16 08:16:00,36.0,34.2,29.65,NE,53,2.0,-999.0,93,0.00,,,0.04,12,Wunderground v.1.15,2013-03-16 12:16:00,
2013-03-16 08:22:00,36.0,34.2,29.64,ENE,78,0.0,-999.0,93,0.00,,,0.04,11,Wunderground v.1.15,2013-03-16 12:22:00,
2013-03-16 08:28:00,36.1,34.3,29.65,NE,55,0.0,-999.0,93,0.00,,,0.04,9,Wunderground v.1.15,2013-03-16 12:28:00,
2013-03-16 08:34:00,36.1,34.3,29.65,NE,51,0.0,-999.0,93,0.00,,,0.04,12,Wunderground v.1.15,2013-03-16 12:34:00,
2013-03-16 08:40:00,36.1,34.3,29.65,East,86,1.0,-999.0,93,0.00,,,0.04,14,Wunderground v.1.15,2013-03-16 12:40:00,
2013-03-16 08:46:00,36.1,34.3,29.64,East,82,2.0,-999.0,93,0.00,,,0.04,19,Wunderground v.1.15,2013-03-16 12:46:00,
2013-03-16 08:52:00,36.1,34.5,29.64,East,85,1.0,-999.0,94,0.00,,,0.04,26,Wunderground v.1.15,2013-03-16 12:52:00,
2013-03-16 08:58:00,36.2,34.6,29.63,ESE,112,1.0,-999.0,94,0.00,,,0.04,35,Wunderground v.1.15,2013-03-16 12:58:00,
2013-03-16 09:03:00,36.2,34.6,29.63,ENE,72,1.0,-999.0,94,0.00,,,0.04,21,Wunderground v.1.15,2013-03-16 13:03:00,
2013-03-16 09:09:00,36.2,34.6,29.63,ESE,118,1.0,-999.0,94,0.00,,,0.04,30,Wunderground v.1.15,2013-03-16 13:09:00,
2013-03-16 09:15:00,36.4,34.8,29.63,East,94,1.0,-999.0,94,0.00,,,0.04,33,Wunderground v.1.15,2013-03-16 13:15:00,
2013-03-16 09:21:00,36.5,34.9,29.62,East,84,1.0,-999.0,94,0.00,,,0.04,25,Wunderground v.1.15,2013-03-16 13:21:00,
2013-03-16 09:27:00,36.6,35.0,29.62,East,101,0.0,-999.0,94,0.00,,,0.04,30,Wunderground v.1.15,2013-03-16 13:27:00,
2013-03-16 09:33:00,36.7,35.1,29.62,East,89,1.0,-999.0,94,0.00,,,0.04,23,Wunderground v.1.15,2013-03-16 13:33:00,
2013-03-16 09:39:00,36.8,35.2,29.62,East,93,0.0,-999.0,94,0.00,,,0.04,39,Wunderground v.1.15,2013-03-16 13:39:00,
2013-03-16 09:45:00,36.9,35.3,29.62,ESE,121,1.0,-999.0,94,0.00,,,0.04,40,Wunderground v.1.15,2013-03-16 13:45:00,
2013-03-16 09:51:00,37.0,35.4,29.60,East,96,1.0,-999.0,94,0.00,,,0.04,30,Wunderground v.1.15,2013-03-16 13:51:00,
2013-03-16 09:57:00,37.0,35.4,29.60,East,84,1.0,-999.0,94,0.00,,,0.04,39,Wunderground v.1.15,2013-03-16 13:57:00,
2013-03-16 10:04:00,37.1,35.5,29.60,East,95,1.0,-999.0,94,0.00,,,0.04,35,Wunderground v.1.15,2013-03-16 14:04:00,
2013-03-16 10:10:00,37.1,35.5,29.60,East,88,1.0,-999.0,94,0.00,,,0.04,79,Wunderground v.1.15,2013-03-16 14:10:00,
2013-03-16 10:16:00,37.3,35.7,29.61,NE,51,1.0,-999.0,94,0.00,,,0.04,42,Wunderground v.1.15,2013-03-16 14:16:00,
2013-03-16 10:22:00,37.4,35.8,29.60,North,5,0.0,-999.0,94,0.00,,,0.04,39,Wunderground v.1.15,2013-03-16 14:22:00,
2013-03-16 10:28:00,37.5,35.9,29.60,NE,51,1.0,-999.0,94,0.00,,,0.04,39,Wunderground v.1.15,2013-03-16 14:28:00,
2013-03-16 10:34:00,37.6,36.0,29.60,NE,41,1.0,-999.0,94,0.00,,,0.04,67,Wunderground v.1.15,2013-03-16 14:34:00,
2013-03-16 10:40:00,37.7,36.1,29.60,NE,44,0.0,-999.0,94,0.00,,,0.04,51,Wunderground v.1.15,2013-03-16 14:40:00,
2013-03-16 10:46:00,37.8,36.2,29.59,NE,45,1.0,-999.0,94,0.00,,,0.04,42,Wunderground v.1.15,2013-03-16 14:46:00,
2013-03-16 10:52:00,37.9,36.3,29.59,NE,55,1.0,-999.0,94,0.00,,,0.04,40,Wunderground v.1.15,2013-03-16 14:52:00,
2013-03-16 10:58:00,38.0,36.4,29.59,NE,44,0.0,-999.0,94,0.00,,,0.04,32,Wunderground v.1.15,2013-03-16 14:58:00,
2013-03-16 11:04:00,38.0,36.2,29.59,NE,44,1.0,-999.0,93,0.00,,,0.04,35,Wunderground v.1.15,2013-03-16 15:04:00,
2013-03-16 11:10:00,38.1,36.3,29.59,NNE,20,1.0,-999.0,93,0.00,,,0.04,40,Wunderground v.1.15,2013-03-16 15:10:00,
2013-03-16 11:16:00,38.1,36.3,29.59,NE,34,1.0,-999.0,93,0.00,,,0.04,40,Wunderground v.1.15,2013-03-16 15:16:00,
2013-03-16 11:22:00,38.2,36.4,29.59,NE,35,1.0,-999.0,93,0.00,,,0.04,53,Wunderground v.1.15,2013-03-16 15:22:00,
2013-03-16 11:28:00,38.2,36.4,29.58,ENE,76,1.0,-999.0,93,0.00,,,0.04,60,Wunderground v.1.15,2013-03-16 15:28:00,
2013-03-16 11:34:00,38.3,36.5,29.58,East,92,1.0,-999.0,93,0.00,,,0.04,51,Wunderground v.1.15,2013-03-16 15:34:00,
2013-03-16 11:40:00,38.4,36.6,29.58,NE,40,0.0,-999.0,93,0.00,,,0.04,70,Wunderground v.1.15,2013-03-16 15:40:00,
2013-03-16 11:49:00,38.6,37.0,29.57,NE,45,0.0,-999.0,94,0.00,,,0.04,128,Wunderground v.1.15,2013-03-16 15:49:00,
2013-03-16 11:54:00,38.9,37.0,29.57,NE,41,1.0,-999.0,93,0.00,,,0.04,141,Wunderground v.1.15,2013-03-16 15:54:00,
2013-03-16 12:00:00,39.1,37.2,29.57,ENE,69,1.0,-999.0,93,0.00,,,0.04,141,Wunderground v.1.15,2013-03-16 16:00:00,
2013-03-16 12:06:00,39.4,37.5,29.57,NE,54,1.0,-999.0,93,0.00,,,0.04,141,Wunderground v.1.15,2013-03-16 16:06:00,
2013-03-16 12:11:00,39.6,37.7,29.57,North,355,1.0,-999.0,93,0.00,,,0.04,134,Wunderground v.1.15,2013-03-16 16:11:00,
2013-03-16 12:17:00,39.7,37.8,29.56,NE,37,2.0,-999.0,93,0.00,,,0.04,93,Wunderground v.1.15,2013-03-16 16:17:00,
2013-03-16 12:23:00,39.7,37.6,29.56,ENE,71,2.0,-999.0,92,0.00,,,0.04,77,Wunderground v.1.15,2013-03-16 16:23:00,
2013-03-16 12:29:00,39.7,37.6,29.55,NNE,16,2.0,-999.0,92,0.00,,,0.04,72,Wunderground v.1.15,2013-03-16 16:29:00,
2013-03-16 12:35:00,39.7,37.6,29.55,North,10,1.0,-999.0,92,0.00,,,0.04,109,Wunderground v.1.15,2013-03-16 16:35:00,
2013-03-16 12:41:00,39.9,38.0,29.55,NE,38,1.0,-999.0,93,0.00,,,0.04,105,Wunderground v.1.15,2013-03-16 16:41:00,
2013-03-16 12:47:00,40.2,38.1,29.55,ENE,78,1.0,-999.0,92,0.00,,,0.04,81,Wunderground v.1.15,2013-03-16 16:47:00,
2013-03-16 12:53:00,40.3,38.2,29.55,NNE,26,1.0,-999.0,92,0.00,,,0.04,121,Wunderground v.1.15,2013-03-16 16:53:00,
2013-03-16 12:59:00,40.4,38.3,29.55,ENE,57,2.0,-999.0,92,0.00,,,0.04,135,Wunderground v.1.15,2013-03-16 16:59:00,
2013-03-16 13:05:00,40.6,38.5,29.55,North,360,2.0,-999.0,92,0.00,,,0.04,158,Wunderground v.1.15,2013-03-16 17:05:00,
2013-03-16 13:10:00,40.8,38.7,29.55,NNE,24,2.0,-999.0,92,0.00,,,0.04,178,Wunderground v.1.15,2013-03-16 17:10:00,
2013-03-16 13:16:00,41.0,38.6,29.55,ENE,61,2.0,-999.0,91,0.00,,,0.04,104,Wunderground v.1.15,2013-03-16 17:16:00,
2013-03-16 13:22:00,41.1,40.3,29.55,ENE,73,1.0,-999.0,97,0.00,,,0.04,105,Wunderground v.1.15,2013-03-16 17:22:00,
2013-03-16 13:28:00,41.2,38.8,29.56,NE,42,0.0,-999.0,91,0.00,,,0.04,93,Wunderground v.1.15,2013-03-16 17:28:00,
2013-03-16 13:34:00,41.2,38.8,29.56,NNE,15,1.0,-999.0,91,0.00,,,0.04,77,Wunderground v.1.15,2013-03-16 17:34:00,
2013-03-16 13:40:00,41.2,38.5,29.56,NNW,327,2.0,-999.0,90,0.00,,,0.04,56,Wunderground v.1.15,2013-03-16 17:40:00,
2013-03-16 13:46:00,41.2,38.5,29.57,NNW,346,1.0,-999.0,90,0.00,,,0.04,53,Wunderground v.1.15,2013-03-16 17:46:00,
2013-03-16 13:52:00,41.1,38.4,29.57,North,350,1.0,-999.0,90,0.00,,,0.04,46,Wunderground v.1.15,2013-03-16 17:52:00,
2013-03-16 13:58:00,41.2,38.5,29.57,North,355,1.0,-999.0,90,0.00,,,0.04,51,Wunderground v.1.15,2013-03-16 17:58:00,
2013-03-16 14:04:00,41.1,38.4,29.57,NNW,348,1.0,-999.0,90,0.00,,,0.04,49,Wunderground v.1.15,2013-03-16 18:04:00,
2013-03-16 14:10:00,41.1,38.4,29.57,NE,46,2.0,-999.0,90,0.00,,,0.04,42,Wunderground v.1.15,2013-03-16 18:10:00,
2013-03-16 14:16:00,41.0,38.3,29.58,North,5,2.0,-999.0,90,0.00,,,0.04,32,Wunderground v.1.15,2013-03-16 18:16:00,
2013-03-16 14:22:00,40.9,38.2,29.58,NNE,22,1.0,-999.0,90,0.00,,,0.04,46,Wunderground v.1.15,2013-03-16 18:22:00,
2013-03-16 14:27:00,40.8,38.1,29.58,ENE,76,2.0,-999.0,90,0.00,,,0.04,46,Wunderground v.1.15,2013-03-16 18:27:00,
2013-03-16 14:33:00,40.8,38.1,29.58,North,360,2.0,-999.0,90,0.00,,,0.04,46,Wunderground v.1.15,2013-03-16 18:33:00,
2013-03-16 14:39:00,40.7,38.0,29.58,North,360,1.0,-999.0,90,0.00,,,0.04,39,Wunderground v.1.15,2013-03-16 18:39:00,
2013-03-16 14:45:00,40.7,38.0,29.58,NNW,344,0.0,-999.0,90,0.00,,,0.04,39,Wunderground v.1.15,2013-03-16 18:45:00,
2013-03-16 14:51:00,40.5,37.8,29.59,NNW,340,1.0,-999.0,90,0.00,,,0.04,47,Wunderground v.1.15,2013-03-16 18:51:00,
2013-03-16 14:57:00,40.5,37.8,29.59,North,355,1.0,-999.0,90,0.00,,,0.04,44,Wunderground v.1.15,2013-03-16 18:57:00,
2013-03-16 15:05:00,40.4,37.7,29.59,NNW,327,0.0,-999.0,90,0.00,,,0.04,47,Wunderground v.1.15,2013-03-16 19:05:00,
2013-03-16 15:11:00,40.4,37.7,29.59,North,355,1.0,-999.0,90,0.00,,,0.04,44,Wunderground v.1.15,2013-03-16 19:11:00,
2013-03-16 15:16:00,40.2,37.5,29.60,NNW,332,2.0,-999.0,90,0.00,,,0.04,47,Wunderground v.1.15,2013-03-16 19:16:00,
2013-03-16 15:22:00,40.2,37.5,29.60,NNW,347,1.0,-999.0,90,0.00,,,0.04,60,Wunderground v.1.15,2013-03-16 19:22:00,
2013-03-16 15:28:00,40.1,37.4,29.60,North,350,1.0,-999.0,90,0.00,,,0.04,70,Wunderground v.1.15,2013-03-16 19:28:00,
2013-03-16 15:34:00,40.1,37.4,29.60,NNW,348,1.0,-999.0,90,0.00,,,0.04,60,Wunderground v.1.15,2013-03-16 19:34:00,
2013-03-16 15:41:00,40.2,37.5,29.60,North,355,1.0,-999.0,90,0.00,,,0.04,58,Wunderground v.1.15,2013-03-16 19:41:00,
2013-03-16 15:46:00,40.2,37.5,29.60,North,355,0.0,-999.0,90,0.00,,,0.04,58,Wunderground v.1.15,2013-03-16 19:46:00,
2013-03-16 15:52:00,40.2,37.5,29.61,North,349,0.0,-999.0,90,0.00,,,0.04,58,Wunderground v.1.15,2013-03-16 19:52:00,
2013-03-16 15:58:00,40.3,37.6,29.61,NNW,344,1.0,-999.0,90,0.00,,,0.04,56,Wunderground v.1.15,2013-03-16 19:58:00,
2013-03-16 16:04:00,40.3,37.6,29.61,NNW,346,1.0,-999.0,90,0.00,,,0.04,74,Wunderground v.1.15,2013-03-16 20:04:00,
2013-03-16 16:11:00,40.3,37.9,29.62,North,355,0.0,-999.0,91,0.00,,,0.04,70,Wunderground v.1.15,2013-03-16 20:11:00,
2013-03-16 16:17:00,40.4,38.0,29.62,NNW,344,0.0,-999.0,91,0.00,,,0.04,46,Wunderground v.1.15,2013-03-16 20:17:00,
2013-03-16 16:22:00,40.4,38.0,29.62,NNW,344,0.0,-999.0,91,0.00,,,0.04,62,Wunderground v.1.15,2013-03-16 20:22:00,
2013-03-16 16:28:00,40.4,38.0,29.63,NNW,344,0.0,-999.0,91,0.00,,,0.04,65,Wunderground v.1.15,2013-03-16 20:28:00,
2013-03-16 16:34:00,40.5,38.4,29.63,NNW,344,0.0,-999.0,92,0.00,,,0.04,77,Wunderground v.1.15,2013-03-16 20:34:00,
2013-03-16 16:41:00,40.6,38.5,29.63,NNW,344,0.0,-999.0,92,0.00,,,0.04,76,Wunderground v.1.15,2013-03-16 20:41:00,
2013-03-16 16:47:00,40.7,38.3,29.63,NNW,344,0.0,-999.0,91,0.00,,,0.04,79,Wunderground v.1.15,2013-03-16 20:47:00,
2013-03-16 16:54:00,40.8,38.7,29.64,NNW,344,0.0,-999.0,92,0.00,,,0.04,65,Wunderground v.1.15,2013-03-16 20:54:00,
2013-03-16 17:00:00,41.0,38.9,29.65,NNW,344,0.0,-999.0,92,0.00,,,0.04,53,Wunderground v.1.15,2013-03-16 21:00:00,
2013-03-16 17:06:00,41.1,38.7,29.64,NW,304,0.0,-999.0,91,0.00,,,0.04,67,Wunderground v.1.15,2013-03-16 21:06:00,
2013-03-16 17:13:00,41.2,39.1,29.66,NW,304,0.0,-999.0,92,0.00,,,0.04,47,Wunderground v.1.15,2013-03-16 21:13:00,
2013-03-16 17:19:00,41.1,38.7,29.66,NNW,342,1.0,-999.0,91,0.00,,,0.04,47,Wunderground v.1.15,2013-03-16 21:19:00,
2013-03-16 17:25:00,41.1,38.7,29.67,NNW,336,3.0,-999.0,91,0.00,,,0.04,37,Wunderground v.1.15,2013-03-16 21:25:00,
2013-03-16 17:31:00,40.9,38.8,29.68,NNW,338,3.0,-999.0,92,0.00,,,0.04,28,Wunderground v.1.15,2013-03-16 21:31:00,
2013-03-16 17:37:00,40.8,38.7,29.68,North,5,2.0,-999.0,92,0.00,,,0.04,23,Wunderground v.1.15,2013-03-16 21:37:00,
2013-03-16 17:44:00,40.7,38.6,29.68,NW,316,3.0,-999.0,92,0.00,,,0.04,19,Wunderground v.1.15,2013-03-16 21:44:00,
2013-03-16 17:50:00,40.6,38.7,29.69,NNW,337,4.0,-999.0,93,0.00,,,0.04,14,Wunderground v.1.15,2013-03-16 21:50:00,
2013-03-16 17:56:00,40.5,38.6,29.69,NNW,331,5.0,-999.0,93,0.00,,,0.04,16,Wunderground v.1.15,2013-03-16 21:56:00,
2013-03-16 18:05:00,40.4,38.8,29.69,North,355,4.0,-999.0,94,0.00,,,0.04,14,Wunderground v.1.15,2013-03-16 22:05:00,
2013-03-16 18:13:00,40.3,38.7,29.70,North,5,3.0,-999.0,94,0.00,,,0.04,12,Wunderground v.1.15,2013-03-16 22:13:00,
2013-03-16 18:20:00,40.2,38.6,29.70,North,360,4.0,-999.0,94,0.00,,,0.04,16,Wunderground v.1.15,2013-03-16 22:20:00,
2013-03-16 18:26:00,40.0,38.1,29.71,NNW,340,3.0,-999.0,93,0.00,,,0.04,12,Wunderground v.1.15,2013-03-16 22:26:00,
2013-03-16 18:33:00,39.8,38.2,29.71,NNW,341,3.0,-999.0,94,0.00,,,0.04,11,Wunderground v.1.15,2013-03-16 22:33:00,
2013-03-16 18:39:00,39.6,38.0,29.72,NNW,329,4.0,-999.0,94,0.00,,,0.04,5,Wunderground v.1.15,2013-03-16 22:39:00,
2013-03-16 18:45:00,39.4,37.5,29.72,NNW,344,4.0,-999.0,93,0.00,,,0.04,5,Wunderground v.1.15,2013-03-16 22:45:00,
2013-03-16 18:51:00,39.3,37.7,29.73,NNW,335,3.0,-999.0,94,0.00,,,0.04,0,Wunderground v.1.15,2013-03-16 22:51:00,
2013-03-16 18:58:00,39.0,37.1,29.74,NNE,17,4.0,-999.0,93,0.00,,,0.04,0,Wunderground v.1.15,2013-03-16 22:58:00,
2013-03-16 19:04:00,38.7,36.9,29.74,NNW,333,3.0,-999.0,93,0.00,,,0.04,0,Wunderground v.1.15,2013-03-16 23:04:00,
2013-03-16 19:10:00,38.6,36.8,29.75,NW,321,4.0,-999.0,93,0.00,,,0.04,0,Wunderground v.1.15,2013-03-16 23:10:00,
2013-03-16 19:16:00,38.4,36.6,29.76,NNW,331,4.0,-999.0,93,0.00,,,0.04,0,Wunderground v.1.15,2013-03-16 23:16:00,
2013-03-16 19:23:00,38.3,36.5,29.76,NNW,342,2.0,-999.0,93,0.00,,,0.04,0,Wunderground v.1.15,2013-03-16 23:23:00,
2013-03-16 19:29:00,38.2,36.4,29.77,NW,315,3.0,-999.0,93,0.00,,,0.04,0,Wunderground v.1.15,2013-03-16 23:29:00,
2013-03-16 19:35:00,38.1,36.3,29.77,NNW,339,3.0,-999.0,93,0.00,,,0.04,0,Wunderground v.1.15,2013-03-16 23:35:00,
2013-03-16 19:41:00,38.0,36.2,29.78,NNW,344,2.0,-999.0,93,0.00,,,0.04,0,Wunderground v.1.15,2013-03-16 23:41:00,
2013-03-16 19:48:00,37.9,36.1,29.77,North,360,1.0,-999.0,93,0.00,,,0.04,0,Wunderground v.1.15,2013-03-16 23:48:00,
2013-03-16 19:54:00,37.9,36.3,29.78,WNW,298,0.0,-999.0,94,0.00,,,0.04,0,Wunderground v.1.15,2013-03-16 23:54:00,
2013-03-16 20:00:00,37.8,36.0,29.79,North,355,0.0,-999.0,93,0.00,,,0.04,0,Wunderground v.1.15,2013-03-17 00:00:00,
2013-03-16 20:06:00,37.8,36.0,29.80,NNW,347,1.0,-999.0,93,0.00,,,0.04,0,Wunderground v.1.15,2013-03-17 00:06:00,
2013-03-16 20:12:00,37.7,35.9,29.80,NNW,343,2.0,-999.0,93,0.00,,,0.04,0,Wunderground v.1.15,2013-03-17 00:12:00,
2013-03-16 20:19:00,37.7,35.6,29.80,NW,325,2.0,-999.0,92,0.00,,,0.04,0,Wunderground v.1.15,2013-03-17 00:19:00,
2013-03-16 20:25:00,37.7,35.6,29.81,NNW,331,1.0,-999.0,92,0.00,,,0.04,0,Wunderground v.1.15,2013-03-17 00:25:00,
2013-03-16 20:31:00,37.6,35.5,29.81,NW,310,2.0,-999.0,92,0.00,,,0.04,0,Wunderground v.1.15,2013-03-17 00:31:00,
2013-03-16 20:38:00,37.6,35.5,29.82,NNW,348,1.0,-999.0,92,0.00,,,0.04,0,Wunderground v.1.15,2013-03-17 00:38:00,
2013-03-16 20:44:00,37.5,35.1,29.82,NNW,334,1.0,-999.0,91,0.00,,,0.04,0,Wunderground v.1.15,2013-03-17 00:44:00,
2013-03-16 20:50:00,37.5,35.1,29.82,NNW,331,2.0,-999.0,91,0.00,,,0.04,0,Wunderground v.1.15,2013-03-17 00:50:00,
2013-03-16 20:57:00,37.4,34.7,29.83,North,355,4.0,-999.0,90,0.00,,,0.04,0,Wunderground v.1.15,2013-03-17 00:57:00,
2013-03-16 21:05:00,37.3,34.6,29.83,NNW,338,4.0,-999.0,90,0.00,,,0.04,0,Wunderground v.1.15,2013-03-17 01:05:00,
2013-03-16 21:11:00,37.2,34.5,29.83,North,350,4.0,-999.0,90,0.00,,,0.04,0,Wunderground v.1.15,2013-03-17 01:11:00,
2013-03-16 21:18:00,37.1,34.4,29.84,NW,321,3.0,-999.0,90,0.00,,,0.04,0,Wunderground v.1.15,2013-03-17 01:18:00,
2013-03-16 21:24:00,37.1,34.4,29.85,NNW,330,2.0,-999.0,90,0.00,,,0.04,0,Wunderground v.1.15,2013-03-17 01:24:00,
2013-03-16 21:30:00,37.1,34.4,29.85,NNW,334,2.0,-999.0,90,0.00,,,0.04,0,Wunderground v.1.15,2013-03-17 01:30:00,
2013-03-16 21:37:00,37.0,34.3,29.85,NNW,329,2.0,-999.0,90,0.00,,,0.04,0,Wunderground v.1.15,2013-03-17 01:37:00,
2013-03-16 21:43:00,37.0,34.3,29.86,North,355,2.0,-999.0,90,0.00,,,0.04,0,Wunderground v.1.15,2013-03-17 01:43:00,
2013-03-16 21:50:00,36.9,34.2,29.86,North,355,2.0,-999.0,90,0.00,,,0.04,0,Wunderground v.1.15,2013-03-17 01:50:00,
2013-03-16 21:56:00,36.9,34.2,29.86,North,351,2.0,-999.0,90,0.00,,,0.04,0,Wunderground v.1.15,2013-03-17 01:56:00,
2013-03-16 22:04:00,36.9,34.5,29.87,North,5,2.0,-999.0,91,0.00,,,0.04,0,Wunderground v.1.15,2013-03-17 02:04:00,
2013-03-16 22:10:00,36.8,34.4,29.87,NNE,13,2.0,-999.0,91,0.00,,,0.04,0,Wunderground v.1.15,2013-03-17 02:10:00,
2013-03-16 22:17:00,36.7,34.3,29.87,NNE,15,3.0,-999.0,91,0.00,,,0.04,0,Wunderground v.1.15,2013-03-17 02:17:00,
2013-03-16 22:23:00,36.6,34.2,29.87,NNW,342,2.0,-999.0,91,0.00,,,0.04,0,Wunderground v.1.15,2013-03-17 02:23:00,
2013-03-16 22:29:00,36.5,34.1,29.88,WNW,290,1.0,-999.0,91,0.00,,,0.04,0,Wunderground v.1.15,2013-03-17 02:29:00,
2013-03-16 22:36:00,36.4,34.0,29.88,NW,312,1.0,-999.0,91,0.00,,,0.04,0,Wunderground v.1.15,2013-03-17 02:36:00,
2013-03-16 22:42:00,36.3,33.9,29.88,NNW,329,1.0,-999.0,91,0.00,,,0.04,0,Wunderground v.1.15,2013-03-17 02:42:00,
2013-03-16 22:48:00,36.3,33.9,29.88,North,355,0.0,-999.0,91,0.00,,,0.04,0,Wunderground v.1.15,2013-03-17 02:48:00,
2013-03-16 22:55:00,36.2,33.8,29.88,North,355,1.0,-999.0,91,0.00,,,0.04,0,Wunderground v.1.15,2013-03-17 02:55:00,
2013-03-16 23:05:00,36.2,33.5,29.88,NW,321,1.0,-999.0,90,0.00,,,0.04,0,Wunderground v.1.15,2013-03-17 03:05:00,
2013-03-16 23:12:00,36.2,33.5,29.88,North,360,1.0,-999.0,90,0.00,,,0.04,0,Wunderground v.1.15,2013-03-17 03:12:00,
2013-03-16 23:18:00,36.1,33.5,29.88,NNW,340,2.0,-999.0,90,0.00,,,0.04,0,Wunderground v.1.15,2013-03-17 03:18:00,
2013-03-16 23:24:00,36.0,33.4,29.88,NW,321,2.0,-999.0,90,0.00,,,0.04,0,Wunderground v.1.15,2013-03-17 03:24:00,
2013-03-16 23:30:00,35.8,33.4,29.88,NW,306,2.0,-999.0,91,0.00,,,0.04,0,Wunderground v.1.15,2013-03-17 03:30:00,
2013-03-16 23:36:00,35.6,33.2,29.88,NNW,344,2.0,-999.0,91,0.00,,,0.04,0,Wunderground v.1.15,2013-03-17 03:36:00,
2013-03-16 23:43:00,35.5,33.1,29.88,NW,316,2.0,-999.0,91,0.00,,,0.04,0,Wunderground v.1.15,2013-03-17 03:43:00,
2013-03-16 23:49:00,35.4,33.0,29.88,NNW,348,1.0,-999.0,91,0.00,,,0.04,0,Wunderground v.1.15,2013-03-17 03:49:00,
2013-03-16 23:55:00,35.3,32.9,29.88,NNW,336,1.0,-999.0,91,0.00,,,0.04,0,Wunderground v.1.15,2013-03-17 03:55:00,